Location: Chèvreville
(49.1099°N, 2.8495°E)
Time: 15:13:12
(UTC+00:00)

SO-50 - Pass Details

Date: 08 December 2023
Orbit: 608 x 661 km, 64.6° (Epoch: 28 February)

Event Time Altitude Azimuth Distance (km) Brightness Sun altitude
Exits shadow 06:02:18 12° 332° (NNW) 1,937 ? -13.5°
Maximum altitude 06:03:34 13° 349° (N) 1,864 ? -13.3°
Drops below altitude 10° 06:05:38 10° 16° (NNE) 2,035 ? -13.0°
Sets 06:09:14 0° 45° (NE) 2,930 ? -12.4°
